ZHANGHENG 1 (CSES)

Last updated on Sat Jun 14 2025 00:03:30 GMT+0000 (Coordinated Universal Time)

1 43194U 18015C 25164.55396931 .00014615 00000+0 66174-3 0 9998 2 43194 97.6497 318.7513 0012541 142.1937 218.0181 15.20921547408619
UTC large
Height (km)
Speed (km/s)
/
Latitude / Longitude
Inclination (degrees)
Orbital Period (minutes)
Azimuth
Elevation
Range (km)
Doppler Factor

Next 0 passes for location: London (51.5072 / 0.1276)

Sorry there are no passes over London.
ZHANGHENG 1 (CSES)